User: anonymous   Login
Location: Caltech
(34.1382°N, 118.1253°W)
Time: 21:26:11
(UTC-07:00)
Language:

Gbstr 26 Del rocket - Orbit

View from above orbital plane
View from above orbital plane
View from above satellite
View from above satellite

Ground track
Ground track

The orbit data is extracted from the following two-line orbital elements,

1 25876U 99041E   15088.81183676  .00003145  00000-0  58192-3 0  9994
2 25876 051.7641 272.2786 0536752 187.4565 171.8137 14.03013559800807
Epoch (UTC): 29 March 2015 19:29:02
Eccentricity: 0.0536752
inclination: 51.7641°
perigee height: 493 km
apogee height: 1273 km
right ascension of ascending node: 272.2786°
argument of perigee: 187.4565°
revolutions per day: 14.03013559
mean anomaly at epoch: 171.8137°
orbit number at epoch: 80080

The dashed part of the orbit path shows where the satellite is in the earth's shadow,  

DLR